EW8920 Weather Reports


Display with metric or nautical units.
time (UTC)temp
F
wind
direction
speed
MPH
gust
MPH
rain 1hr
in
rain 24hr
in
rain mn
in
humidity
%
barometer
mb
20220123144005 26 276 8.0 13.0 0.00 0.00 0.00 63 1011.2
20220123143005 26 271 8.0 13.0 0.00 0.00 0.00 64 1011.5
20220123142006 26 274 9.0 13.0 0.00 0.00 0.00 64 1011.5
20220123141005 25 279 9.0 14.0 0.00 0.00 0.00 65 1011.5
20220123140005 25 275 10.0 16.0 0.00 0.00 0.00 65 1011.7
20220123135005 25 271 8.0 16.0 0.00 0.00 0.00 67 1011.8
20220123134006 25 270 10.0 16.0 0.00 0.00 0.00 68 1011.8
20220123133005 25 272 9.0 17.0 0.00 0.00 0.00 69 1011.8
20220123132005 24 276 11.0 18.0 0.00 0.00 0.00 69 1012.1
20220123131006 24 275 14.0 19.0 0.00 0.00 0.00 68 1012.2
20220123130005 24 275 13.0 20.0 0.00 0.00 0.00 70 1012.2
20220123125005 24 274 11.0 19.0 0.00 0.00 0.00 71 1012.4
20220123124005 24 276 15.0 19.0 0.00 0.00 0.00 69 1012.5
20220123123006 24 277 14.0 19.0 0.00 0.00 0.00 71 1012.5
20220123122005 24 278 14.0 18.0 0.00 0.00 0.00 72 1012.6
20220123121005 24 274 12.0 17.0 0.00 0.00 0.00 73 1012.5
20220123120005 25 262 10.0 17.0 0.00 0.00 0.00 76 1012.5
20220123115006 25 264 12.0 18.0 0.00 0.00 0.00 77 1012.5
20220123114005 25 262 12.0 18.0 0.00 0.00 0.00 78 1012.5
20220123113005 25 265 10.0 15.0 0.00 0.00 0.00 80 1012.6
20220123112005 25 253 10.0 15.0 0.00 0.00 0.00 80 1012.6
20220123111006 25 258 10.0 17.0 0.00 0.00 0.00 79 1012.5
20220123110005 25 267 11.0 17.0 0.00 0.00 0.00 80 1012.5
20220123105006 25 259 9.0 17.0 0.00 0.00 0.00 82 1012.5
20220123104005 25 258 10.0 15.0 0.00 0.00 0.00 83 1012.6
20220123103006 25 258 10.0 16.0 0.00 0.00 0.00 84 1012.7
20220123102005 25 258 10.0 17.0 0.00 0.00 0.00 84 1012.7
20220123101005 25 273 10.0 16.0 0.00 0.00 0.00 84 1012.7
20220123100005 25 271 11.0 19.0 0.00 0.00 0.00 84 1012.8
20220123095006 25 276 13.0 19.0 0.00 0.00 0.00 85 1012.9
20220123094005 25 271 10.0 15.0 0.00 0.00 0.00 86 1012.9
20220123093006 25 261 11.0 21.0 0.00 0.00 0.00 86 1013.0
20220123092005 25 269 11.0 19.0 0.00 0.00 0.00 86 1013.1
20220123091006 25 277 14.0 19.0 0.00 0.00 0.00 87 1013.3
20220123090005 25 282 12.0 17.0 0.00 0.00 0.00 87 1013.5
20220123085005 25 278 13.0 18.0 0.00 0.00 0.00 88 1013.6
20220123084005 25 276 12.0 17.0 0.00 0.00 0.00 89 1013.7
20220123083006 25 270 11.0 18.0 0.00 0.00 0.00 89 1013.7
20220123082005 24 262 10.0 17.0 0.00 0.00 0.00 90 1013.7
20220123081005 25 248 11.0 15.0 0.00 0.00 0.00 90 1013.8
20220123080006 25 245 9.0 15.0 0.00 0.00 0.00 90 1014.0
20220123075005 25 238 8.0 14.0 0.00 0.00 0.00 90 1014.2
20220123074006 25 233 8.0 16.0 0.00 0.00 0.00 89 1014.3
20220123073005 25 237 8.0 15.0 0.00 0.00 0.00 89 1014.5
20220123072006 24 233 8.0 14.0 0.00 0.00 0.00 89 1014.5
20220123071005 24 237 7.0 12.0 0.00 0.00 0.00 89 1014.7
20220123070005 24 235 7.0 14.0 0.00 0.00 0.00 89 1014.8
20220123065005 25 227 8.0 14.0 0.00 0.00 0.00 90 1014.8
20220123064006 24 230 9.0 13.0 0.00 0.00 0.00 90 1014.9
20220123063005 24 226 8.0 13.0 0.00 0.00 0.00 90 1015.1
20220123062005 24 217 9.0 13.0 0.00 0.00 0.00 90 1015.2
20220123061006 23 219 8.0 12.0 0.00 0.00 0.00 90 1015.3
20220123060006 23 220 8.0 10.0 0.00 0.00 0.00 90 1015.4
20220123055005 24 229 3.0 7.0 0.00 0.00 0.00 90 1015.6
20220123054005 24 230 3.0 6.0 0.00 0.00 0.00 90 1015.7
20220123053005 24 235 2.0 8.0 0.00 0.00 0.00 90 1015.8
20220123052006 24 227 5.0 9.0 0.00 0.00 0.00 90 1016.0
20220123051005 24 223 7.0 9.0 0.00 0.00 0.00 90 1016.1
20220123050005 24 215 7.0 9.0 0.00 0.00 0.00 90 1016.2
20220123045005 23 208 6.0 9.0 0.00 0.00 0.00 90 1016.1
20220123044006 23 213 4.0 7.0 0.00 0.00 0.00 89 1016.3
20220123043005 23 225 4.0 6.0 0.00 0.00 0.00 89 1016.7
20220123042005 23 238 4.0 7.0 0.00 0.00 0.00 89 1016.9
20220123041005 23 250 5.0 8.0 0.00 0.00 0.00 89 1017.0
20220123040006 23 297 3.0 5.0 0.00 0.00 0.00 89 1017.0
20220123035005 22 299 2.0 7.0 0.00 0.00 0.00 89 1017.2
20220123034005 22 302 3.0 8.0 0.00 0.00 0.00 89 1017.5
20220123033006 23 291 5.0 8.0 0.00 0.00 0.00 89 1017.8
20220123032005 23 276 5.0 8.0 0.00 0.00 0.00 89 1017.8
20220123031005 23 315 4.0 7.0 0.00 0.00 0.00 89 1017.9
20220123030005 22 322 3.0 6.0 0.00 0.00 0.00 89 1018.0
20220123025006 22 330 5.0 9.0 0.00 0.00 0.00 88 1018.1
20220123024005 22 314 4.0 7.0 0.00 0.00 0.00 88 1018.3
20220123023005 22 304 4.0 7.0 0.00 0.00 0.00 88 1018.4
20220123022005 23 296 4.0 8.0 0.00 0.00 0.00 88 1018.5
20220123021006 23 282 5.0 9.0 0.00 0.00 0.00 87 1018.8
20220123020005 23 324 4.0 8.0 0.00 0.00 0.00 87 1018.9
20220123015006 23 327 5.0 8.0 0.00 0.00 0.00 87 1018.9
20220123014005 24 324 4.0 6.0 0.00 0.00 0.00 87 1018.9
20220123013006 23 339 4.0 6.0 0.00 0.00 0.00 87 1019.0
20220123012004 23 341 3.0 5.0 0.00 0.00 0.00 86 1018.9
20220123011005 23 338 4.0 8.0 0.00 0.00 0.00 86 1019.1
20220123010005 24 352 3.0 6.0 0.00 0.00 0.00 86 1019.2
20220123005006 24 347 4.0 6.0 0.00 0.00 0.00 85 1019.5
20220123004005 24 359 3.0 6.0 0.00 0.00 0.00 83 1019.6
20220123003005 25 5 2.0 5.0 0.00 0.00 0.00 81 1019.8
20220123002005 27 17 3.0 6.0 0.00 0.00 0.00 80 1020.3
20220123001006 27 38 4.0 9.0 0.00 0.00 0.00 80 1020.2
20220123000005 27 46 6.0 10.0 0.00 0.00 0.00 81 1020.0
20220122235005 27 50 4.0 9.0 0.00 0.00 0.00 80 1020.2
20220122234005 27 46 5.0 13.0 0.00 0.00 0.00 81 1020.3
20220122233006 27 37 7.0 13.0 0.00 0.00 0.00 81 1020.1
20220122232005 27 32 6.0 11.0 0.00 0.00 0.00 81 1020.3
20220122231005 27 29 8.0 12.0 0.00 0.00 0.00 81 1020.5
20220122230005 27 38 6.0 13.0 0.00 0.00 0.00 81 1020.5
20220122225006 26 33 9.0 13.0 0.00 0.00 0.00 82 1020.5
20220122224005 27 25 9.0 14.0 0.00 0.00 0.00 82 1020.9
20220122223005 26 35 10.0 13.0 0.00 0.00 0.00 82 1020.9
20220122222005 26 28 8.0 13.0 0.00 0.00 0.00 82 1021.0
20220122221006 26 31 9.0 15.0 0.00 0.00 0.00 83 1021.1
20220122220004 26 25 12.0 17.0 0.00 0.00 0.00 82 1021.1
20220122215005 27 25 10.0 16.0 0.00 0.00 0.00 83 1021.2
20220122214005 26 21 12.0 17.0 0.00 0.00 0.00 83 1021.5
20220122213005 26 34 11.0 17.0 0.00 0.00 0.00 83 1021.5
20220122212005 27 23 12.0 17.0 0.00 0.00 0.00 84 1021.8
20220122211004 27 18 14.0 17.0 0.00 0.00 0.00 85 1022.1
20220122210006 26 14 11.0 17.0 0.00 0.00 0.00 85 1022.3
20220122205004 26 10 11.0 19.0 0.00 0.00 0.00 85 1022.3
20220122204005 27 14 14.0 21.0 0.00 0.00 0.00 86 1022.2
20220122203005 27 13 12.0 23.0 0.00 0.00 0.00 86 1022.1
20220122202006 26 18 15.0 23.0 0.00 0.00 0.00 86 1022.0
20220122201005 26 20 15.0 22.0 0.00 0.00 0.00 87 1021.8
20220122200005 26 31 14.0 21.0 0.00 0.00 0.00 86 1022.0
20220122195005 26 22 14.0 21.0 0.00 0.00 0.00 86 1022.0
20220122194006 26 21 16.0 22.0 0.00 0.00 0.00 85 1022.6
20220122193005 27 14 14.0 20.0 0.00 0.00 0.00 85 1023.2
20220122192005 26 10 11.0 21.0 0.00 0.00 0.00 86 1023.1
20220122191005 27 7 12.0 22.0 0.00 0.00 0.00 86 1023.6
20220122190006 26 24 11.0 19.0 0.00 0.00 0.00 86 1023.6
20220122185005 26 6 11.0 18.0 0.00 0.00 0.00 88 1023.6
20220122184005 26 3 12.0 21.0 0.00 0.00 0.00 89 1023.8
20220122183005 26 5 12.0 22.0 0.00 0.00 0.00 88 1024.0
20220122182005 26 358 12.0 21.0 0.00 0.00 0.00 88 1024.0
20220122181005 26 355 13.0 23.0 0.00 0.00 0.00 89 1024.2
20220122180005 26 357 13.0 21.0 0.00 0.00 0.00 89 1024.3
20220122175005 26 356 15.0 23.0 0.00 0.00 0.00 89 1024.3
20220122174005 26 2 13.0 22.0 0.00 0.00 0.00 88 1024.5
20220122173005 26 10 15.0 24.0 0.00 0.00 0.00 88 1024.7
20220122172005 26 13 13.0 24.0 0.00 0.00 0.00 88 1024.9
20220122171005 26 15 15.0 26.0 0.00 0.00 0.00 88 1025.0
20220122170005 26 11 13.0 20.0 0.00 0.00 0.00 87 1025.2
20220122165005 26 6 14.0 23.0 0.00 0.00 0.00 86 1025.6
20220122164007 26 18 14.0 23.0 0.00 0.00 0.00 85 1025.8
20220122163008 27 10 13.0 26.0 0.00 0.00 0.00 84 1026.0
20220122162007 26 19 15.0 23.0 0.00 0.00 0.00 84 1026.1
20220122161006 26 11 15.0 24.0 0.00 0.00 0.00 83 1026.2
20220122160007 27 17 18.0 21.0 0.00 0.00 0.00 82 1026.4
20220122155007 27 23 12.0 21.0 0.00 0.00 0.00 80 1026.7
20220122154007 27 20 14.0 20.0 0.00 0.00 0.00 80 1026.9
20220122153008 27 24 14.0 24.0 0.00 0.00 0.00 80 1027.1
20220122152011 27 33 15.0 23.0 0.00 0.00 0.00 79 1027.2
20220122151005 27 21 15.0 23.0 0.00 0.00 0.00 79 1027.0
20220122150006 27 37 18.0 25.0 0.00 0.00 0.00 79 1027.0
20220122145004 27 27 14.0 23.0 0.00 0.00 0.00 78 1027.0